| time (UTC) | temp F | wind direction | speed knots | gust knots | rain 1hr in | rain 24hr in | rain mn in | humidity % | barometer mb |
| 20260507141803 | 68 | 173 | 5.2 | 13.0 | 0.00 | 0.00 | 0.00 | 49 | 1010.0 |
| 20260507140903 | 68 | 206 | 5.2 | 11.3 | 0.00 | 0.00 | 0.00 | 47 | 1010.4 |
| 20260507140003 | 69 | 209 | 6.1 | 12.2 | 0.00 | 0.00 | 0.00 | 46 | 1010.4 |
| 20260507135403 | 69 | 197 | 5.2 | 12.2 | 0.00 | 0.00 | 0.00 | 48 | 1010.5 |
| 20260507134503 | 69 | 187 | 5.2 | 12.2 | 0.00 | 0.00 | 0.00 | 48 | 1010.4 |
| 20260507133603 | 69 | 188 | 4.3 | 8.7 | 0.00 | 0.00 | 0.00 | 48 | 1010.5 |
| 20260507132703 | 69 | 205 | 4.3 | 13.9 | 0.00 | 0.00 | 0.00 | 48 | 1010.4 |
| 20260507131803 | 70 | 177 | 3.5 | 7.0 | 0.00 | 0.00 | 0.00 | 46 | 1010.4 |
| 20260507131117 | 68 | 133 | 6.1 | 13.9 | 0.00 | 0.00 | 0.00 | 45 | 1010.5 |
| 20260507130003 | 71 | 157 | 4.3 | 9.6 | 0.00 | 0.00 | 0.00 | 43 | 1010.6 |
| 20260507125403 | 71 | 170 | 4.3 | 11.3 | 0.00 | 0.00 | 0.00 | 45 | 1010.7 |
| 20260507124503 | 69 | 167 | 5.2 | 20.0 | 0.00 | 0.00 | 0.00 | 46 | 1010.8 |
| 20260507123818 | 70 | 183 | 6.1 | 20.0 | 0.00 | 0.00 | 0.00 | 46 | 1010.7 |
| 20260507122705 | 69 | 146 | 7.0 | 13.0 | 0.00 | 0.00 | 0.00 | 47 | 1011.0 |
| 20260507121803 | 69 | 142 | 8.7 | 14.8 | 0.00 | 0.00 | 0.00 | 44 | 1011.0 |
| 20260507120903 | 68 | 141 | 8.7 | 14.8 | 0.00 | 0.00 | 0.00 | 44 | 1011.2 |
| 20260507120003 | 68 | 143 | 7.8 | 15.6 | 0.00 | 0.00 | 0.00 | 47 | 1011.0 |
| 20260507115403 | 69 | 155 | 7.0 | 14.8 | 0.00 | 0.00 | 0.00 | 46 | 1011.0 |
| 20260507114503 | 67 | 147 | 8.7 | 14.8 | 0.00 | 0.00 | 0.00 | 49 | 1011.3 |
| 20260507113603 | 67 | 141 | 6.1 | 12.2 | 0.00 | 0.00 | 0.00 | 51 | 1011.5 |
| 20260507112703 | 66 | 136 | 8.7 | 13.0 | 0.00 | 0.00 | 0.00 | 52 | 1011.5 |
| 20260507111803 | 67 | 146 | 6.1 | 13.0 | 0.00 | 0.00 | 0.00 | 54 | 1011.6 |
| 20260507110903 | 66 | 151 | 6.1 | 12.2 | 0.00 | 0.00 | 0.00 | 55 | 1011.6 |
| 20260507110003 | 65 | 151 | 7.8 | 13.9 | 0.00 | 0.00 | 0.00 | 56 | 1011.7 |
| 20260507105617 | 66 | 149 | 7.0 | 13.0 | 0.00 | 0.00 | 0.00 | 59 | 1011.8 |
| 20260507104503 | 65 | 144 | 7.0 | 12.2 | 0.00 | 0.00 | 0.00 | 56 | 1011.7 |
| 20260507103603 | 67 | 156 | 6.1 | 13.0 | 0.00 | 0.00 | 0.00 | 59 | 1011.9 |
| 20260507102703 | 65 | 154 | 4.3 | 9.6 | 0.00 | 0.00 | 0.00 | 62 | 1011.8 |
| 20260507101803 | 66 | 133 | 4.3 | 11.3 | 0.00 | 0.00 | 0.00 | 59 | 1011.8 |
| 20260507100903 | 64 | 138 | 3.5 | 7.8 | 0.00 | 0.00 | 0.00 | 61 | 1011.9 |
| 20260507100217 | 65 | 121 | 2.6 | 7.8 | 0.00 | 0.00 | 0.00 | 61 | 1012.0 |
| 20260507095403 | 64 | 139 | 3.5 | 8.7 | 0.00 | 0.00 | 0.00 | 60 | 1012.1 |
| 20260507094503 | 65 | 124 | 1.7 | 8.7 | 0.00 | 0.00 | 0.00 | 59 | 1012.1 |
| 20260507093603 | 63 | 146 | 2.6 | 7.0 | 0.00 | 0.00 | 0.00 | 60 | 1012.2 |
| 20260507092916 | 64 | 147 | 1.7 | 6.1 | 0.00 | 0.00 | 0.00 | 60 | 1012.1 |
| 20260507091803 | 62 | 116 | 1.7 | 5.2 | 0.00 | 0.00 | 0.00 | 62 | 1012.3 |
| 20260507091117 | 61 | 112 | 1.7 | 3.5 | 0.00 | 0.00 | 0.00 | 62 | 1012.3 |
| 20260507090004 | 60 | 129 | 1.7 | 3.5 | 0.00 | 0.00 | 0.00 | 63 | 1012.3 |
| 20260507085403 | 59 | 106 | 1.7 | 2.6 | 0.00 | 0.00 | 0.00 | 61 | 1012.3 |
| 20260507084503 | 60 | 130 | 2.6 | 5.2 | 0.00 | 0.00 | 0.00 | 64 | 1012.2 |
| 20260507083603 | 60 | 136 | 1.7 | 3.5 | 0.00 | 0.00 | 0.00 | 64 | 1012.2 |
| 20260507082918 | 60 | 139 | 0.9 | 3.5 | 0.00 | 0.00 | 0.00 | 62 | 1012.3 |
| 20260507081803 | 60 | 173 | 0.9 | 1.7 | 0.00 | 0.00 | 0.00 | 62 | 1012.1 |
| 20260507080903 | 59 | 136 | 0.9 | 1.7 | 0.00 | 0.00 | 0.00 | 62 | 1012.1 |
| 20260507080218 | 57 | 130 | 0.9 | 1.7 | 0.00 | 0.00 | 0.00 | 65 | 1012.1 |
| 20260507075403 | 58 | 107 | 0.9 | 1.7 | 0.00 | 0.00 | 0.00 | 66 | 1012.1 |
| 20260507074503 | 58 | 81 | 0.9 | 1.7 | 0.00 | 0.00 | 0.00 | 67 | 1012.1 |
| 20260507073818 | 56 | 74 | 0.9 | 2.6 | 0.00 | 0.00 | 0.00 | 68 | 1012.1 |
| 20260507072703 | 56 | 85 | 0.9 | 0.9 | 0.00 | 0.00 | 0.00 | 74 | 1012.1 |
| 20260507071803 | 55 | 129 | 0.0 | 0.9 | 0.00 | 0.00 | 0.00 | 74 | 1012.0 |
| 20260507070903 | 54 | 149 | 0.9 | 1.7 | 0.00 | 0.00 | 0.00 | 78 | 1012.1 |
| 20260507070005 | 54 | 135 | 0.9 | 1.7 | 0.00 | 0.00 | 0.00 | 78 | 1012.2 |
| 20260507065403 | 53 | 149 | 0.9 | 1.7 | 0.00 | 0.00 | 0.00 | 80 | 1012.0 |
| 20260507064503 | 52 | 143 | 0.9 | 1.7 | 0.00 | 0.00 | 0.00 | 82 | 1012.0 |
| 20260507063818 | 52 | 149 | 0.9 | 1.7 | 0.00 | 0.00 | 0.00 | 82 | 1011.9 |
| 20260507062703 | 51 | 152 | 1.7 | 2.6 | 0.00 | 0.00 | 0.00 | 83 | 1011.8 |
| 20260507062016 | 52 | 156 | 0.9 | 1.7 | 0.00 | 0.00 | 0.00 | 82 | 1011.6 |
| 20260507060903 | 51 | 160 | 0.9 | 1.7 | 0.00 | 0.00 | 0.00 | 83 | 1011.4 |
| 20260507060217 | 52 | 150 | 0.9 | 1.7 | 0.00 | 0.00 | 0.00 | 82 | 1011.5 |
| 20260507055617 | 53 | 138 | 0.9 | 1.7 | 0.00 | 0.00 | 0.00 | 80 | 1011.0 |
| 20260507054503 | 52 | 125 | 0.9 | 1.7 | 0.00 | 0.00 | 0.00 | 81 | 1011.2 |
| 20260507053603 | 53 | 108 | 0.9 | 1.7 | 0.00 | 0.00 | 0.00 | 80 | 1010.9 |
| 20260507052703 | 52 | 108 | 0.0 | 1.7 | 0.00 | 0.00 | 0.00 | 81 | 1010.7 |
| 20260507051803 | 52 | 108 | 0.9 | 0.9 | 0.00 | 0.00 | 0.00 | 82 | 1010.6 |
| 20260507050903 | 53 | 108 | 0.9 | 2.6 | 0.00 | 0.00 | 0.00 | 81 | 1010.7 |
| 20260507050003 | 53 | 108 | 1.7 | 2.6 | 0.00 | 0.00 | 0.00 | 80 | 1010.8 |
| 20260507045403 | 53 | 108 | 2.6 | 3.5 | 0.00 | 0.00 | 0.00 | 80 | 1010.9 |
| 20260507044503 | 53 | 108 | 1.7 | 3.5 | 0.00 | 0.00 | 0.00 | 78 | 1010.8 |
| 20260507043603 | 52 | 108 | 0.9 | 1.7 | 0.00 | 0.00 | 0.00 | 81 | 1010.9 |
| 20260507042703 | 52 | 108 | 1.7 | 2.6 | 0.00 | 0.00 | 0.00 | 82 | 1010.8 |
| 20260507042018 | 52 | 108 | 1.7 | 2.6 | 0.00 | 0.00 | 0.00 | 81 | 1010.7 |
| 20260507040903 | 53 | 108 | 0.9 | 1.7 | 0.00 | 0.00 | 0.00 | 79 | 1010.7 |
| 20260507040003 | 53 | 108 | 0.9 | 1.7 | 0.00 | 0.00 | 0.00 | 79 | 1010.6 |
| 20260507035403 | 54 | 108 | 0.9 | 1.7 | 0.00 | 0.00 | 0.00 | 77 | 1010.6 |
| 20260507034503 | 54 | 108 | 0.9 | 1.7 | 0.00 | 0.00 | 0.00 | 78 | 1010.6 |
| 20260507033603 | 54 | 110 | 0.9 | 1.7 | 0.00 | 0.00 | 0.00 | 78 | 1010.6 |
| 20260507032703 | 54 | 112 | 0.9 | 1.7 | 0.00 | 0.00 | 0.00 | 78 | 1010.8 |
| 20260507031803 | 53 | 117 | 0.9 | 1.7 | 0.00 | 0.00 | 0.00 | 80 | 1010.5 |
| 20260507030903 | 53 | 119 | 0.9 | 1.7 | 0.00 | 0.00 | 0.00 | 79 | 1010.6 |
| 20260507030003 | 53 | 126 | 0.9 | 1.7 | 0.00 | 0.00 | 0.00 | 80 | 1010.6 |
| 20260507025403 | 53 | 133 | 0.9 | 1.7 | 0.00 | 0.00 | 0.00 | 80 | 1010.7 |
| 20260507024717 | 53 | 138 | 0.9 | 1.7 | 0.00 | 0.00 | 0.00 | 80 | 1010.6 |
| 20260507023603 | 53 | 132 | 0.9 | 1.7 | 0.00 | 0.00 | 0.00 | 80 | 1010.6 |
| 20260507022703 | 54 | 126 | 0.9 | 1.7 | 0.00 | 0.00 | 0.00 | 79 | 1010.6 |
| 20260507021803 | 54 | 132 | 0.9 | 2.6 | 0.00 | 0.00 | 0.00 | 79 | 1010.4 |
| 20260507020903 | 54 | 125 | 1.7 | 2.6 | 0.00 | 0.00 | 0.00 | 78 | 1010.7 |
| 20260507020003 | 54 | 126 | 0.9 | 1.7 | 0.00 | 0.00 | 0.00 | 78 | 1010.6 |
| 20260507015403 | 54 | 141 | 2.6 | 3.5 | 0.00 | 0.00 | 0.00 | 78 | 1010.5 |
| 20260507014503 | 54 | 145 | 3.5 | 5.2 | 0.00 | 0.00 | 0.00 | 78 | 1010.6 |
| 20260507013603 | 54 | 150 | 4.3 | 6.1 | 0.00 | 0.00 | 0.00 | 77 | 1010.7 |
| 20260507012703 | 55 | 160 | 2.6 | 6.1 | 0.00 | 0.00 | 0.00 | 76 | 1010.7 |
| 20260507012017 | 55 | 155 | 3.5 | 7.0 | 0.00 | 0.00 | 0.00 | 76 | 1010.7 |
| 20260507010903 | 55 | 156 | 4.3 | 7.0 | 0.00 | 0.00 | 0.00 | 77 | 1010.9 |
| 20260507010003 | 55 | 157 | 4.3 | 7.8 | 0.00 | 0.00 | 0.00 | 76 | 1010.7 |
| 20260507005403 | 55 | 155 | 3.5 | 7.8 | 0.00 | 0.00 | 0.00 | 76 | 1010.9 |
| 20260507004716 | 56 | 168 | 2.6 | 6.1 | 0.00 | 0.00 | 0.00 | 74 | 1010.9 |
| 20260507003603 | 57 | 194 | 4.3 | 7.8 | 0.00 | 0.00 | 0.00 | 74 | 1011.0 |
| 20260507002917 | 57 | 200 | 4.3 | 7.8 | 0.00 | 0.00 | 0.00 | 73 | 1011.0 |
| 20260507001803 | 56 | 160 | 2.6 | 6.1 | 0.00 | 0.00 | 0.00 | 74 | 1011.2 |
| 20260507000903 | 56 | 188 | 3.5 | 6.1 | 0.00 | 0.00 | 0.00 | 74 | 1011.5 |
| 20260507000009 | 56 | 173 | 3.5 | 6.1 | 0.00 | 0.00 | 0.00 | 74 | 1011.5 |
| 20260506235403 | 56 | 168 | 3.5 | 7.0 | 0.00 | 0.00 | 0.00 | 74 | 1011.5 |
| 20260506234503 | 56 | 161 | 3.5 | 6.1 | 0.00 | 0.00 | 0.00 | 73 | 1011.5 |
| 20260506233603 | 57 | 172 | 3.5 | 7.0 | 0.00 | 0.00 | 0.00 | 72 | 1011.5 |
| 20260506232917 | 58 | 186 | 3.5 | 7.0 | 0.00 | 0.00 | 0.00 | 71 | 1011.6 |
| 20260506231803 | 58 | 182 | 4.3 | 8.7 | 0.00 | 0.00 | 0.00 | 70 | 1011.5 |
| 20260506230903 | 58 | 184 | 4.3 | 7.8 | 0.00 | 0.00 | 0.00 | 69 | 1011.5 |
| 20260506230003 | 58 | 189 | 3.5 | 8.7 | 0.00 | 0.00 | 0.00 | 68 | 1011.4 |
| 20260506225618 | 58 | 184 | 4.3 | 8.7 | 0.00 | 0.00 | 0.00 | 67 | 1011.5 |
| 20260506224504 | 59 | 192 | 4.3 | 11.3 | 0.00 | 0.00 | 0.00 | 66 | 1011.4 |
| 20260506223603 | 59 | 180 | 3.5 | 8.7 | 0.00 | 0.00 | 0.00 | 64 | 1011.3 |
| 20260506222703 | 60 | 187 | 4.3 | 9.6 | 0.00 | 0.00 | 0.00 | 63 | 1011.2 |
| 20260506221803 | 60 | 198 | 5.2 | 12.2 | 0.00 | 0.00 | 0.00 | 62 | 1011.2 |
| 20260506220903 | 60 | 185 | 4.3 | 8.7 | 0.00 | 0.00 | 0.00 | 61 | 1011.0 |
| 20260506220003 | 60 | 165 | 4.3 | 8.7 | 0.00 | 0.00 | 0.00 | 60 | 1011.0 |
| 20260506215403 | 60 | 160 | 4.3 | 8.7 | 0.00 | 0.00 | 0.00 | 59 | 1011.4 |
| 20260506214717 | 61 | 171 | 3.5 | 7.8 | 0.00 | 0.00 | 0.00 | 57 | 1011.3 |
| 20260506213603 | 61 | 163 | 5.2 | 8.7 | 0.00 | 0.00 | 0.00 | 56 | 1011.2 |
| 20260506212703 | 61 | 161 | 5.2 | 15.6 | 0.00 | 0.00 | 0.00 | 51 | 1011.0 |
| 20260506211803 | 64 | 142 | 1.7 | 3.5 | 0.00 | 0.00 | 0.00 | 43 | 1010.4 |
| 20260506210903 | 67 | 182 | 1.7 | 2.6 | 0.00 | 0.00 | 0.00 | 37 | 1010.6 |
| 20260506210003 | 68 | 199 | 2.6 | 3.5 | 0.00 | 0.00 | 0.00 | 36 | 1010.3 |
| 20260506205403 | 68 | 201 | 2.6 | 3.5 | 0.00 | 0.00 | 0.00 | 36 | 1010.4 |
| 20260506204503 | 68 | 203 | 2.6 | 3.5 | 0.00 | 0.00 | 0.00 | 36 | 1010.1 |
| 20260506203603 | 68 | 204 | 2.6 | 3.5 | 0.00 | 0.00 | 0.00 | 36 | 1010.2 |
| 20260506202918 | 68 | 200 | 2.6 | 5.2 | 0.00 | 0.00 | 0.00 | 37 | 1010.0 |
| 20260506201803 | 68 | 186 | 1.7 | 3.5 | 0.00 | 0.00 | 0.00 | 37 | 1010.0 |
| 20260506200903 | 68 | 171 | 0.9 | 2.6 | 0.00 | 0.00 | 0.00 | 37 | 1010.1 |
| 20260506200003 | 68 | 190 | 1.7 | 2.6 | 0.00 | 0.00 | 0.00 | 36 | 1009.8 |
| 20260506195403 | 68 | 187 | 1.7 | 2.6 | 0.00 | 0.00 | 0.00 | 36 | 1009.9 |
| 20260506194503 | 68 | 169 | 0.9 | 2.6 | 0.00 | 0.00 | 0.00 | 36 | 1009.7 |
| 20260506193603 | 68 | 161 | 0.9 | 1.7 | 0.00 | 0.00 | 0.00 | 35 | 1009.7 |
| 20260506192703 | 69 | 173 | 1.7 | 1.7 | 0.00 | 0.00 | 0.00 | 34 | 1009.7 |
| 20260506191803 | 69 | 185 | 1.7 | 2.6 | 0.00 | 0.00 | 0.00 | 34 | 1009.6 |
| 20260506190903 | 69 | 188 | 1.7 | 3.5 | 0.00 | 0.00 | 0.00 | 33 | 1009.6 |
| 20260506190004 | 71 | 186 | 2.6 | 5.2 | 0.00 | 0.00 | 0.00 | 33 | 1009.6 |
| 20260506185403 | 71 | 183 | 1.7 | 5.2 | 0.00 | 0.00 | 0.00 | 33 | 1009.4 |
| 20260506184503 | 71 | 154 | 0.9 | 2.6 | 0.00 | 0.00 | 0.00 | 34 | 1009.4 |
| 20260506183603 | 72 | 164 | 0.9 | 2.6 | 0.00 | 0.00 | 0.00 | 34 | 1009.4 |
| 20260506182703 | 72 | 195 | 1.7 | 6.1 | 0.00 | 0.00 | 0.00 | 32 | 1009.4 |
| 20260506182017 | 72 | 198 | 2.6 | 6.1 | 0.00 | 0.00 | 0.00 | 32 | 1009.3 |
| 20260506180903 | 72 | 177 | 1.7 | 5.2 | 0.00 | 0.00 | 0.00 | 33 | 1009.5 |
| 20260506180218 | 72 | 192 | 1.7 | 5.2 | 0.00 | 0.00 | 0.00 | 34 | 1009.3 |
| 20260506175403 | 72 | 168 | 0.9 | 2.6 | 0.00 | 0.00 | 0.00 | 33 | 1009.6 |
| 20260506174717 | 72 | 189 | 1.7 | 5.2 | 0.00 | 0.00 | 0.00 | 33 | 1009.6 |
| 20260506173603 | 72 | 199 | 3.5 | 7.0 | 0.00 | 0.00 | 0.00 | 32 | 1009.5 |
| 20260506172703 | 72 | 178 | 2.6 | 6.1 | 0.00 | 0.00 | 0.00 | 32 | 1009.5 |
| 20260506172017 | 72 | 196 | 1.7 | 5.2 | 0.00 | 0.00 | 0.00 | 32 | 1009.6 |
| 20260506170903 | 71 | 215 | 2.6 | 7.0 | 0.00 | 0.00 | 0.00 | 31 | 1009.7 |
| 20260506170218 | 72 | 218 | 3.5 | 7.8 | 0.00 | 0.00 | 0.00 | 31 | 1009.9 |
| 20260506165403 | 72 | 214 | 2.6 | 6.1 | 0.00 | 0.00 | 0.00 | 30 | 1009.8 |
| 20260506164503 | 71 | 205 | 3.5 | 7.0 | 0.00 | 0.00 | 0.00 | 31 | 1009.9 |
| 20260506163603 | 71 | 172 | 3.5 | 7.8 | 0.00 | 0.00 | 0.00 | 31 | 1009.9 |
| 20260506162703 | 71 | 150 | 4.3 | 7.8 | 0.00 | 0.00 | 0.00 | 33 | 1009.7 |
| 20260506161803 | 72 | 171 | 3.5 | 7.0 | 0.00 | 0.00 | 0.00 | 33 | 1009.9 |
| 20260506160903 | 72 | 168 | 3.5 | 11.3 | 0.00 | 0.00 | 0.00 | 33 | 1010.2 |
| 20260506160003 | 71 | 182 | 2.6 | 7.0 | 0.00 | 0.00 | 0.00 | 32 | 1010.1 |
| 20260506155403 | 71 | 150 | 1.7 | 7.0 | 0.00 | 0.00 | 0.00 | 30 | 1010.2 |
| 20260506154503 | 71 | 168 | 1.7 | 5.2 | 0.00 | 0.00 | 0.00 | 30 | 1010.3 |
| 20260506153603 | 72 | 218 | 2.6 | 6.1 | 0.00 | 0.00 | 0.00 | 30 | 1010.2 |
| 20260506152703 | 72 | 235 | 3.5 | 7.8 | 0.00 | 0.00 | 0.00 | 29 | 1010.3 |
| 20260506151803 | 72 | 207 | 4.3 | 7.0 | 0.00 | 0.00 | 0.00 | 32 | 1010.4 |
| 20260506150903 | 73 | 186 | 1.7 | 7.0 | 0.00 | 0.00 | 0.00 | 31 | 1010.4 |
| 20260506150217 | 71 | 159 | 1.7 | 5.2 | 0.00 | 0.00 | 0.00 | 32 | 1010.6 |
| 20260506145616 | 70 | 160 | 2.6 | 7.8 | 0.00 | 0.00 | 0.00 | 32 | 1010.8 |
| 20260506144503 | 70 | 238 | 3.5 | 7.0 | 0.00 | 0.00 | 0.00 | 32 | 1010.9 |
| 20260506143603 | 70 | 222 | 3.5 | 8.7 | 0.00 | 0.00 | 0.00 | 33 | 1011.0 |
| 20260506142703 | 70 | 172 | 3.5 | 7.8 | 0.00 | 0.00 | 0.00 | 35 | 1011.2 |